Weather in Holon

Israel     32°00′44″N   34°46′35″E
temp.,
°C
wind,
m/s
gust,
m/s
humid.,
%
clouds,
%
prec.,
mm/h
press.,
hPa
HPBL,
m
14 april, wed
wed1400:00+15ne35585 0.0 1020404
03:00+14nne34600 0.0 1019284
06:00+14ne34620 0.0 1019275
09:00+16nne33480 0.0 1020329
12:00+20nnw33360 0.0 1019533
15:00+20nnw76465 0.0 1018566
18:00+19n785395 0.0 1017468
21:00+17nne6858100 0.0 1018307
15 april, thu
thu1500:00+17nne5661100 0.0 1018274
03:00+16nne35655 0.0 1017226
06:00+15ne23670 0.0 1017150
09:00+19nw11461 0.0 1017198
12:00+22n43330 0.0 1017428
15:00+23nnw66490 0.0 1015375
18:00+21n71053100 0.0 1015300
21:00+19n5860100 0.0 1015163
16 april, fri
fri1600:00+18n4667100 0.0 1014125
03:00+18nne346989 0.0 101485
06:00+18n2268100 0.0 101449
09:00+21ne114780 0.0 1014102
12:00+24nnw55415 0.0 1014365
15:00+23nnw81050100 0.0 1013326
18:00+22n812535 0.0 1013303
21:00+19nne59620 0.0 1014181
17 april, sat
sat1700:00+19nne47680 0.0 1014161
03:00+18nne510760 0.0 1014217
06:00+17nnw22693 0.0 101358
09:00+21s11531 0.0 1014159
12:00+23nw43495 0.0 1014362
15:00+24n78535 0.0 1013374
18:00+24n58485 0.0 1013198
21:00+21n466234 0.0 101495
18 april, sun
sun1800:00+20nnw69695 0.0 1015159
03:00+19nne336631 0.0 101455
06:00+20sw1254100 0.0 101311
09:00+24s34445 0.0 1014113
12:00+29w21335 0.0 1013334
15:00+27n674343 0.0 1012186
18:00+26nne610463 0.0 1012170
21:00+26ne454219 0.0 101246